Home   Weather   Tashkent   Past weeks

Flag for Uzbekistan Past Weather in Tashkent, Uzbekistan — Yesterday and Last 2 Weeks

Now
70 °F

Passing clouds.


Feels Like: 70 °F
Forecast: 68 / 89 °F
Wind: 3 mph from Southeast

Location: Tashkent

Current Time: Sep 25, 2016 at 8:56:25 AM

Latest Report: Sep 25, 2016 at 8:00 AM


Visibility: N/A

Pressure: 29.80 "Hg

Humidity: 43%

Dew Point: 46 °F

Location of TashkentLocation

Past Weather in Tashkent — Graph

°F

Tashkent Temperature Yesterday

Maximum temperature yesterday: 91 °F (at 1:30 PM)
Minimum temperature yesterday: 63 °F (at 6:30 AM)
Average temperature yesterday: 77 °F

High & Low Weather Summary for the Past Weeks

 TemperatureHumidityPressure
High95 °F (Sep 16, 1:30 PM)73% (Sep 20, 6:00 AM)30.12 "Hg (Sep 20, 6:00 AM)
Low61 °F (Sep 14, 2:00 AM)14% (Sep 16, 11:30 AM)29.74 "Hg (Sep 10, 4:30 PM)
Average76 °F40%29.89 "Hg
* Reported Sep 10 7:00 AM — Sep 25 7:00 AM, Tashkent, Weather by CustomWeather, © 2016

Note: Actual official high and low records may vary slightly from our data, if they occured in-between our weather recording intervals... More about our weather records

Advertising

Tashkent Weather History for the Previous 24 Hours

Scroll right to see more
 ConditionsComfort  
Time TempWeatherWind HumidityBarometerVisibility
7:00 AM
Sun, Sep 25
64 °FSunny.6 mph52%29.80 "Hg10 mi
6:30 AM64 °FSunny.5 mph49%29.80 "Hg10 mi
6:00 AM63 °FClear.8 mph52%29.77 "Hg10 mi
5:30 AM63 °FClear.9 mph52%29.77 "Hg10 mi
5:00 AM63 °FPassing clouds.9 mph52%29.77 "HgN/A
4:30 AM63 °FClear.7 mph52%29.77 "Hg10 mi
4:00 AM64 °FClear.6 mph49%29.77 "Hg10 mi
3:30 AM64 °FClear.7 mph49%29.77 "Hg10 mi
3:00 AM64 °FClear.10 mph49%29.77 "Hg10 mi
2:30 AM64 °FClear.10 mph49%29.77 "Hg10 mi
2:00 AM64 °FClear.8 mph52%29.77 "Hg10 mi
1:30 AM64 °FClear.7 mph52%29.77 "Hg10 mi
1:00 AM64 °FClear.8 mph52%29.77 "Hg10 mi
12:30 AM66 °FClear.8 mph49%29.74 "Hg10 mi
12:00 AM64 °FClear.8 mph52%29.74 "Hg10 mi
11:30 PM
Sat, Sep 24
66 °FClear.8 mph49%29.74 "Hg2 mi
11:00 PM70 °FClear.8 mph43%29.77 "Hg2 mi
10:30 PM68 °FClear.8 mph49%29.74 "Hg2 mi
10:00 PM70 °FClear.7 mph50%29.77 "Hg2 mi
9:30 PM72 °FClear.6 mph44%29.77 "Hg2 mi
9:00 PM73 °FClear.3 mph38%29.77 "Hg2 mi
8:30 PM75 °FClear.No wind34%29.77 "Hg2 mi
8:00 PM79 °FClear.1 mph30%29.74 "Hg2 mi
7:30 PM77 °FClear.1 mph34%29.74 "Hg2 mi
7:00 PM81 °FClear.5 mph28%29.74 "Hg10 mi
6:30 PM84 °FClear.5 mph25%29.74 "Hg10 mi
6:00 PM86 °FSunny.6 mph22%29.74 "Hg10 mi
5:30 PM88 °FSunny.7 mph21%29.74 "Hg10 mi
5:00 PM90 °FSunny.9 mph18%29.74 "Hg10 mi
4:30 PM90 °FSunny.10 mph18%29.74 "Hg10 mi
4:00 PM91 °FPassing clouds.12 mph15%29.74 "HgN/A
3:30 PM91 °FPassing clouds.12 mph16%29.74 "HgN/A
3:00 PM91 °FSunny.12 mph17%29.74 "Hg10 mi
2:30 PM91 °FPassing clouds.10 mph17%29.74 "HgN/A
2:00 PM91 °FPassing clouds.10 mph20%29.74 "HgN/A
1:30 PM91 °FPassing clouds.9 mph21%29.74 "HgN/A
1:00 PM90 °FPassing clouds.10 mph20%29.74 "HgN/A
12:30 PM90 °FPassing clouds.8 mph21%29.77 "HgN/A
12:00 PM90 °FPassing clouds.8 mph24%29.77 "HgN/A
11:30 AM88 °FPassing clouds.8 mph24%29.77 "HgN/A
11:00 AM88 °FSunny.9 mph21%29.77 "Hg10 mi
10:30 AM86 °FClear.8 mph25%29.77 "Hg4 mi
10:00 AM84 °FClear.5 mph27%29.80 "Hg4 mi
9:30 AM82 °FClear.6 mph28%29.80 "Hg4 mi
9:00 AM79 °FClear.8 mph34%29.80 "Hg4 mi
8:30 AM77 °FClear.7 mph36%29.80 "Hg4 mi
8:00 AM73 °FClear.8 mph41%29.80 "Hg4 mi
Weather by CustomWeather, © 2016

See weather overviewHow to use our weather pages